Location: Nashville
(36.1660°N, 86.7840°W)
Time: 04:26:46
(UTC-06:00)

SR - Visible Passes

Search period start: 19 January 2022 00:00
Search period end: 29 January 2022 00:00
Orbit: 582 x 872 km, 66.7° (Epoch: 18 January)

Date Brightness Start Highest point End Pass type
(mag) Time Alt. Az. Time Alt. Az. Time Alt. Az.
23 Jan ? 19:26:10 10° NNW 19:26:53 14° NNW 19:26:53 14° NNW visible
24 Jan ? 18:36:51 10° N 18:39:12 21° NNE 18:39:12 21° NNE visible
24 Jan ? 20:18:24 10° NW 20:18:40 11° NW 20:18:40 11° NW visible
25 Jan ? 17:48:25 10° NNE 17:50:34 13° NE 17:51:50 12° ENE visible
25 Jan ? 19:28:12 10° NNW 19:31:19 41° NW 19:31:19 41° NW visible
26 Jan ? 18:38:28 10° NNW 18:43:07 47° ENE 18:44:27 38° ESE visible
26 Jan ? 20:21:30 10° WNW 20:23:59 17° W 20:23:59 17° W visible
27 Jan ? 17:49:12 10° N 17:53:03 23° NE 17:57:08 10° ESE visible
27 Jan ? 19:30:35 10° NW 19:35:08 39° WSW 19:38:07 21° SSW visible
28 Jan ? 18:40:27 10° NNW 18:45:19 87° WSW 18:50:36 10° SSE visible
